Date String (YYYY-MM-DD hh:mm:ss) UTC,Instrument flags,Ambient pressure (hPa),Sample flow (lpm),Bypass flow (lpm),Sample temperature (°C),Ambient temperature (°C),ASC tube jacket temperature (°C),LED temperature (°C),Box temperature (°C),Sample RH (%),Span deviation,Mass concentration (μg/m³),Mass concentration (μg/m³),Mass concentration (μg/m³)
DateTimeUTC,F1_M11,P_M11,Q1_M11,Q2_M11,T1_M11,T2_M11,T3_M11,T4_M11,T5_M11,U1_M11,ZSPAN_M11,X0_M11,X2_M11,X1_M11
2022-08-03 22:00:00,,0827.9,4.99,0.00,29.8,28.3,00.0,38.5,31.6,29.1,0000.0,0008.06,0005.44,0005.07
2022-08-03 22:01:00,,0827.9,5.00,0.00,29.8,28.4,00.0,38.5,31.7,28.9,0000.0,0008.08,0005.44,0005.07
2022-08-03 22:02:00,,0827.9,5.00,0.00,29.8,28.4,00.0,38.5,31.7,29.1,0000.0,0008.14,0005.47,0005.08
2022-08-03 22:03:00,,0827.9,5.00,0.00,29.8,27.8,00.0,38.5,31.5,28.8,0000.0,0008.22,0005.52,0005.10
2022-08-03 22:04:00,,0827.9,5.00,0.00,29.8,27.4,00.0,38.5,31.4,29.0,0000.0,0008.23,0005.54,0005.11
2022-08-03 22:05:00,,0827.9,5.00,0.00,29.7,27.3,00.0,38.5,31.4,29.3,0000.0,0008.23,0005.54,0005.12
2022-08-03 22:06:00,,0827.9,5.01,0.00,29.6,27.4,00.0,38.4,31.3,29.3,0000.0,0008.28,0005.58,0005.14
2022-08-03 22:07:00,,0827.9,4.99,0.00,29.6,27.6,00.0,38.4,31.3,29.6,0000.0,0008.37,0005.59,0005.15
2022-08-03 22:08:00,,0827.9,5.01,0.00,29.6,27.8,00.0,38.4,31.4,29.6,0000.0,0008.42,0005.63,0005.17
2022-08-03 22:09:00,,0827.9,5.00,0.00,29.6,28.0,00.0,38.4,31.5,29.2,0000.0,0008.35,0005.62,0005.18
2022-08-03 22:10:00,,0827.9,5.00,0.00,29.7,28.2,00.0,38.4,31.6,29.4,0000.0,0008.33,0005.62,0005.19
2022-08-03 22:11:00,,0827.9,5.00,0.00,29.7,28.4,00.0,38.4,31.6,29.2,0000.0,0008.34,0005.64,0005.20
2022-08-03 22:12:00,,0827.9,5.01,0.00,29.8,28.5,00.0,38.5,31.7,28.7,0000.0,0008.28,0005.63,0005.21
2022-08-03 22:13:00,,0827.8,5.00,0.00,29.8,28.3,00.0,38.4,31.6,28.5,0000.0,0008.25,0005.61,0005.21
2022-08-03 22:14:00,,0827.9,4.99,0.00,29.7,27.7,00.0,38.4,31.5,28.6,0000.0,0008.21,0005.59,0005.21
2022-08-03 22:15:00,,0827.9,5.01,0.00,29.7,27.4,00.0,38.4,31.4,28.7,0000.0,0008.27,0005.61,0005.21
2022-08-03 22:16:00,,0827.8,4.99,0.00,29.6,27.4,00.0,38.4,31.4,28.5,0000.0,0008.33,0005.64,0005.23
2022-08-03 22:17:00,,0827.8,5.01,0.00,29.6,27.5,00.0,38.4,31.3,28.3,0000.0,0008.57,0005.65,0005.26
2022-08-03 22:18:00,,0827.9,5.00,0.00,29.6,27.7,00.0,38.4,31.3,28.2,0000.0,0008.91,0005.68,0005.27
2022-08-03 22:19:00,,0827.8,4.99,0.00,29.6,27.9,00.0,38.4,31.4,27.2,0000.0,0009.03,0005.76,0005.34
2022-08-03 22:20:00,,0827.9,5.00,0.00,29.6,28.1,00.0,38.4,31.5,27.7,0000.0,0009.70,0005.87,0005.44
2022-08-03 22:21:00,,0827.9,5.00,0.00,29.7,28.3,00.0,38.4,31.6,27.0,0000.0,0010.04,0006.03,0005.55
2022-08-03 22:22:00,,0827.9,5.01,0.00,29.7,28.5,00.0,38.4,31.7,26.2,0000.0,0010.30,0006.19,0005.70
2022-08-03 22:23:00,,0827.9,5.00,0.00,29.8,28.3,00.0,38.4,31.7,26.6,0000.0,0010.68,0006.38,0005.86
2022-08-03 22:24:00,,0827.8,5.00,0.00,29.7,27.7,00.0,38.4,31.5,26.8,0000.0,0011.00,0006.55,0005.99
2022-08-03 22:25:00,,0827.8,4.99,0.00,29.7,27.4,00.0,38.4,31.4,27.0,0000.0,0011.15,0006.68,0006.09
2022-08-03 22:26:00,,0827.8,5.00,0.00,29.6,27.4,00.0,38.4,31.3,26.8,0000.0,0011.31,0006.78,0006.18
2022-08-03 22:27:00,,0827.8,5.00,0.00,29.6,27.5,00.0,38.3,31.3,27.2,0000.0,0011.81,0006.91,0006.25
2022-08-03 22:28:00,,0827.8,4.99,0.00,29.5,27.7,00.0,38.3,31.3,27.4,0000.4,0011.98,0006.98,0006.30
2022-08-03 22:29:00,,0827.8,4.99,0.00,29.6,27.9,00.0,38.3,31.4,27.6,0001.0,0011.71,0007.03,0006.35
2022-08-03 22:30:00,,0827.9,5.00,0.00,29.6,28.1,00.0,38.3,31.5,27.7,0000.7,0012.69,0007.04,0006.36
2022-08-03 22:31:00,,0827.9,5.00,0.00,29.6,28.3,00.0,38.4,31.5,27.0,0001.3,0012.40,0007.00,0006.31
2022-08-03 22:32:00,,0827.9,5.00,0.00,29.7,28.2,00.0,38.4,31.6,27.3,0000.3,0012.12,0006.91,0006.27
2022-08-03 22:33:00,,0827.9,4.99,0.00,29.6,27.7,00.0,38.3,31.4,27.3,0000.0,0011.89,0006.77,0006.15
2022-08-03 22:34:00,,0827.9,5.01,0.00,29.6,27.3,00.0,38.3,31.3,27.7,0000.0,0011.82,0006.69,0006.03
2022-08-03 22:35:00,,0827.8,4.99,0.00,29.6,27.2,00.0,38.3,31.3,27.4,0000.0,0011.71,0006.58,0005.95
2022-08-03 22:36:00,,0827.9,5.02,0.00,29.5,27.4,00.0,38.3,31.2,27.5,0000.0,0011.91,0006.54,0005.90
2022-08-03 22:37:00,,0827.9,4.99,0.00,29.5,27.6,00.0,38.3,31.3,27.7,0000.0,0012.94,0006.50,0005.88
2022-08-03 22:38:00,,0828.0,5.01,0.00,29.5,27.8,00.0,38.3,31.3,27.7,0000.2,0012.77,0006.44,0005.85
2022-08-03 22:39:00,,0827.8,5.00,0.00,29.5,28.0,00.0,38.3,31.4,27.9,0000.7,0012.70,0006.43,0005.82
2022-08-03 22:40:00,,0827.8,5.00,0.00,29.6,28.2,00.0,38.3,31.5,27.9,0000.5,0012.53,0006.39,0005.80
2022-08-03 22:41:00,,0827.8,4.99,0.00,29.6,28.4,00.0,38.3,31.5,27.6,0000.2,0011.62,0006.36,0005.78
2022-08-03 22:42:00,,0827.9,5.01,0.00,29.6,28.0,00.0,38.3,31.5,27.8,0000.0,0011.63,0006.38,0005.77
2022-08-03 22:43:00,,0827.9,4.99,0.00,29.6,27.5,00.0,38.3,31.3,27.8,0000.0,0012.83,0006.43,0005.77
2022-08-03 22:44:00,,0827.8,5.00,0.00,29.5,27.3,00.0,38.3,31.3,27.7,0000.0,0014.08,0006.53,0005.82
2022-08-03 22:45:00,,0827.9,5.01,0.00,29.5,27.3,00.0,38.2,31.3,28.2,0000.0,0014.03,0006.57,0005.88
2022-08-03 22:46:00,,0827.9,5.01,0.00,29.4,27.5,00.0,38.2,31.2,28.2,0000.0,0014.57,0006.67,0005.93
2022-08-03 22:47:00,,0827.9,5.00,0.00,29.4,27.7,00.0,38.2,31.3,27.8,0000.0,0014.61,0006.76,0005.99
2022-08-03 22:48:00,,0827.9,5.00,0.00,29.5,27.9,00.0,38.2,31.3,27.4,0000.0,0013.64,0006.80,0006.04
2022-08-03 22:49:00,,0827.9,5.00,0.00,29.5,28.1,00.0,38.2,31.4,27.6,0000.0,0013.69,0006.85,0006.10
2022-08-03 22:50:00,,0827.9,5.00,0.00,29.5,28.3,00.0,38.3,31.5,27.6,0000.0,0013.74,0006.91,0006.16
2022-08-03 22:51:00,,0827.9,5.00,0.00,29.6,28.3,00.0,38.3,31.5,27.3,0000.0,0013.94,0007.01,0006.21
2022-08-03 22:52:00,,0827.8,5.00,0.00,29.6,27.8,00.0,38.2,31.4,27.3,0000.7,0013.99,0007.08,0006.26
2022-08-03 22:53:00,,0827.8,5.01,0.00,29.5,27.3,00.0,38.2,31.2,28.3,0001.6,0014.34,0007.14,0006.31
2022-08-03 22:54:00,,0827.9,4.99,0.00,29.5,27.3,00.0,38.2,31.2,27.8,0001.8,0014.37,0007.18,0006.34
2022-08-03 22:55:00,,0827.8,5.01,0.00,29.4,27.4,00.0,38.2,31.2,27.6,0002.3,0013.98,0007.13,0006.34
2022-08-03 22:56:00,,0827.9,4.99,0.00,29.4,27.6,00.0,38.2,31.2,28.1,0002.4,0014.02,0007.11,0006.33
2022-08-03 22:57:00,,0827.9,5.00,0.00,29.4,27.8,00.0,38.2,31.3,28.1,0002.5,0013.75,0007.08,0006.31
2022-08-03 22:58:00,,0827.9,5.01,0.00,29.5,28.0,00.0,38.2,31.4,27.9,0002.0,0013.71,0007.05,0006.29
2022-08-03 22:59:00,,0828.0,4.99,0.00,29.5,28.2,00.0,38.2,31.4,27.9,0001.6,0013.96,0007.05,0006.24
